Glencoe, MN

7:45 PM CST on November 11, 2019 (GMT -0600)
Glencoe Municipal

Weather History for KGYL - October, 2019

Change the Weather History Date:

Sunday, October 20, 2019

  Actual Average (KHCD) Record (KHCD)
Temperature  
Mean Temperature 50 °F -  
Max Temperature 66 °F 57 °F 79 °F (1978)
Min Temperature 34 °F 34 °F 20 °F (1989)
Degree Days  
Heating Degree Days 15    
Moisture  
Dew Point 37 °F    
Average Humidity 66    
Maximum Humidity 91    
Minimum Humidity 32    
Precipitation  
Precipitation 0.00 in - - ()
Sea Level Pressure  
Sea Level Pressure 29.78 in    
Wind  
Wind Speed 3 mph (ESE)    
Max Wind Speed 18 mph    
Max Gust Speed 23 mph    
Visibility 10 miles    
Events      
Averages and records for this station are not official NWS values.
T = Trace of Precipitation, MM = Missing Value Source: NWS Daily Summary

Daily Weather History Graph

Daily Weather History Graph

Search for Another Location

Airport or City:

Astronomy

Oct. 20, 2019 Rise Set
Actual Time 7:37 AM CDT 6:23 PM CDT
Civil Twilight 7:08 AM CDT 6:53 PM CDT
Nautical Twilight 6:34 AM CDT 7:27 PM CDT
Astronomical Twilight 6:00 AM CDT 8:00 PM CDT
Moon 11:23 PM CDT (10/20) 2:16 PM CDT (10/20)
Length of Visible Light 11h 44m
Length of Day
10h 45m
Waning Gibbous, 59% of the Moon is Illuminated
Oct 20
Waning Gibbous
Oct 21
Last Quarter
Oct 27
New
Nov 4
First Quarter
Nov 12
Full

Hourly Weather History & Observations

Time (CDT) Temp. Windchill Dew Point Humidity Pressure Visibility Wind Dir Wind Speed Gust Speed Precip Events Conditions
12:15 AM 40.1 °F - 34.7 °F 81% 29.75 in 10.0 mi Calm Calm - N/A   Clear
12:16 AM 40.1 °F - 34.7 °F 81% 29.75 in 10.0 mi Calm Calm - N/A   Clear
12:35 AM 41.9 °F - 34.7 °F 76% 29.75 in 10.0 mi Calm Calm - N/A   Clear
12:40 AM 41.9 °F - 34.7 °F 76% 29.75 in 10.0 mi Calm Calm - N/A   Clear
12:57 AM 39.2 °F - 34.7 °F 84% 29.75 in 10.0 mi Calm Calm - N/A   Clear
1:15 AM 39.4 °F - 34.7 °F 83% 29.75 in 10.0 mi Calm Calm - N/A   Clear
1:35 AM 38.7 °F - 34.7 °F 86% 29.75 in 10.0 mi Calm Calm - N/A   Clear
1:59 AM 37.6 °F - 34.0 °F 87% 29.75 in 10.0 mi Calm Calm - N/A   Clear
2:16 AM 38.3 °F - 34.2 °F 85% 29.75 in 10.0 mi Calm Calm - N/A   Clear
2:36 AM 38.1 °F - 34.0 °F 85% 29.75 in 10.0 mi Calm Calm - N/A   Clear
2:55 AM 37.8 °F - 34.0 °F 86% 29.76 in 10.0 mi Calm Calm - N/A   Clear
3:15 AM 36.9 °F - 33.6 °F 88% 29.76 in 10.0 mi Calm Calm - N/A   Clear
3:35 AM 37.2 °F - 33.6 °F 87% 29.76 in 10.0 mi Calm Calm - N/A   Clear
3:55 AM 37.2 °F - 33.6 °F 87% 29.77 in 10.0 mi Calm Calm - N/A   Clear
3:59 AM 37.6 °F - 33.8 °F 86% 29.77 in 10.0 mi Calm Calm - N/A   Clear
4:17 AM 37.4 °F - 33.4 °F 86% 29.77 in 10.0 mi Calm Calm - N/A   Clear
4:35 AM 37.0 °F - 33.8 °F 88% 29.77 in 7.0 mi Calm Calm - N/A   Scattered Clouds
4:36 AM 36.9 °F - 33.8 °F 89% 29.78 in 5.0 mi Calm Calm - N/A   Scattered Clouds
4:58 AM 38.3 °F 35.9 °F 33.4 °F 83% 29.78 in 10.0 mi SSW 3.5 mph - N/A   Scattered Clouds
5:15 AM 39.7 °F - 33.6 °F 79% 29.78 in 10.0 mi Calm Calm - N/A   Clear
5:16 AM 39.9 °F - 33.8 °F 79% 29.78 in 10.0 mi Calm Calm - N/A   Clear
5:35 AM 40.5 °F - 33.8 °F 77% 29.78 in 10.0 mi Calm Calm - N/A   Clear
5:36 AM 40.5 °F - 33.8 °F 77% 29.79 in 10.0 mi Calm Calm - N/A   Clear
5:57 AM 38.5 °F - 33.4 °F 82% 29.79 in 10.0 mi Calm Calm - N/A   Clear
6:15 AM 36.7 °F - 33.1 °F 87% 29.80 in 10.0 mi Calm Calm - N/A   Clear
6:16 AM 36.7 °F - 32.9 °F 86% 29.80 in 10.0 mi Calm Calm - N/A   Clear
6:35 AM 37.2 °F - 33.6 °F 87% 29.80 in 10.0 mi Calm Calm - N/A   Clear
6:58 AM 37.4 °F - 33.1 °F 84% 29.80 in 10.0 mi Calm Calm - N/A   Clear
7:15 AM 34.9 °F - 32.2 °F 90% 29.81 in 10.0 mi Calm Calm - N/A   Clear
7:35 AM 35.4 °F - 32.9 °F 91% 29.81 in 10.0 mi Calm Calm - N/A   Clear
7:36 AM 35.4 °F - 32.9 °F 91% 29.81 in 10.0 mi Calm Calm - N/A   Clear
7:58 AM 36.5 °F - 33.1 °F 87% 29.81 in 10.0 mi Calm Calm - N/A   Clear
8:16 AM 37.2 °F - 33.3 °F 86% 29.82 in 7.0 mi Calm Calm - N/A   Clear
8:35 AM 37.9 °F - 33.6 °F 84% 29.83 in 10.0 mi Calm Calm - N/A   Clear
8:36 AM 37.9 °F - 33.8 °F 85% 29.83 in 10.0 mi Calm Calm - N/A   Clear
8:59 AM 41.0 °F - 35.6 °F 81% 29.84 in 10.0 mi Calm Calm - N/A   Scattered Clouds
9:06 AM - - - N/A% 29.84 in 10.0 mi Calm Calm - N/A   Scattered Clouds
9:15 AM 43.7 °F 42.1 °F 36.7 °F 76% 29.83 in 10.0 mi East 3.5 mph - N/A   Scattered Clouds
9:19 AM 44.4 °F - 36.9 °F 75% 29.83 in 10.0 mi Calm Calm - N/A   Scattered Clouds
9:36 AM 46.8 °F - 38.1 °F 72% 29.83 in 10.0 mi East 3.5 mph - N/A   Scattered Clouds
10:01 AM - - - N/A% 29.83 in 10.0 mi SE 4.6 mph - N/A   Clear
10:17 AM 54.3 °F - 37.8 °F 54% 29.83 in 10.0 mi SE 5.8 mph - N/A   Clear
10:42 AM - - - N/A% 29.83 in 10.0 mi SE 6.9 mph - N/A   Clear
10:59 AM 59.0 °F - 33.8 °F 39% 29.83 in 10.0 mi SSE 9.2 mph - N/A   Clear
11:11 AM - - - N/A% 29.83 in 10.0 mi SSE 6.9 mph - N/A   Clear
11:59 AM 62.6 °F - 33.8 °F 34% 29.83 in 10.0 mi SSE 8.1 mph - N/A   Clear
12:59 PM 64.4 °F - 33.8 °F 32% 29.83 in 10.0 mi SE 4.6 mph - N/A   Mostly Cloudy
1:59 PM 66.2 °F - 35.6 °F 32% 29.80 in 10.0 mi ESE 6.9 mph - N/A   Scattered Clouds
2:18 PM - - - N/A% 29.80 in 10.0 mi SE 8.1 mph - N/A   Clear
2:35 PM - - - N/A% 29.80 in 10.0 mi ESE 9.2 mph - N/A   Clear
2:42 PM 65.3 °F - 35.1 °F 33% 29.80 in 10.0 mi SE 9.2 mph - N/A   Clear
2:59 PM 64.4 °F - 35.6 °F 34% 29.80 in 10.0 mi SE 5.8 mph - N/A   Scattered Clouds
3:05 PM 65.3 °F - 35.1 °F 33% 29.80 in 10.0 mi ESE 8.1 mph - N/A   Scattered Clouds
3:16 PM 65.1 °F - 35.4 °F 33% 29.80 in 10.0 mi ESE 6.9 mph - N/A   Scattered Clouds
3:57 PM 64.6 °F - 35.8 °F 34% 29.79 in 10.0 mi SE 6.9 mph - N/A   Scattered Clouds
4:15 PM 64.2 °F - 36.5 °F 36% 29.79 in 10.0 mi ESE 5.8 mph - N/A   Scattered Clouds
4:41 PM 63.3 °F - 38.7 °F 40% 29.79 in 10.0 mi ESE 6.9 mph - N/A   Scattered Clouds
4:56 PM 62.4 °F - 39.6 °F 43% 29.78 in 10.0 mi ESE 6.9 mph - N/A   Scattered Clouds
5:16 PM 61.2 °F - 40.1 °F 46% 29.78 in 10.0 mi East 5.8 mph - N/A   Clear
5:36 PM 61.2 °F - 38.5 °F 43% 29.77 in 10.0 mi East 6.9 mph - N/A   Scattered Clouds
5:56 PM 59.7 °F - 39.9 °F 48% 29.77 in 10.0 mi East 5.8 mph - N/A   Scattered Clouds
6:15 PM 58.3 °F - 40.1 °F 51% 29.77 in 10.0 mi East 5.8 mph - N/A   Clear
6:16 PM 58.3 °F - 40.1 °F 51% 29.77 in 10.0 mi East 6.9 mph - N/A   Clear
6:35 PM 57.2 °F - 40.1 °F 53% 29.77 in 10.0 mi East 6.9 mph - N/A   Clear
6:40 PM 57.2 °F - 39.4 °F 51% 29.77 in 10.0 mi East 6.9 mph - N/A   Clear
6:56 PM 57.4 °F - 39.2 °F 51% 29.76 in 10.0 mi East 8.1 mph - N/A   Clear
7:15 PM 57.7 °F - 39.2 °F 50% 29.77 in 10.0 mi East 6.9 mph - N/A   Clear
7:16 PM 57.9 °F - 39.2 °F 50% 29.77 in 10.0 mi East 6.9 mph - N/A   Clear
7:39 PM 57.4 °F - 39.6 °F 51% 29.77 in 10.0 mi East 6.9 mph - N/A   Clear
7:56 PM 56.8 °F - 40.1 °F 54% 29.77 in 10.0 mi East 8.1 mph - N/A   Clear
8:15 PM 56.7 °F - 40.3 °F 54% 29.77 in 10.0 mi East 8.1 mph - N/A   Clear
8:16 PM 56.5 °F - 40.3 °F 55% 29.77 in 10.0 mi East 8.1 mph - N/A   Clear
8:38 PM 55.9 °F - 41.0 °F 57% 29.77 in 10.0 mi East 8.1 mph - N/A   Clear
8:55 PM 56.1 °F - 41.4 °F 58% 29.77 in 10.0 mi East 8.1 mph - N/A   Scattered Clouds
9:15 PM 56.1 °F - 41.4 °F 58% 29.77 in 10.0 mi East 9.2 mph - N/A   Mostly Cloudy
9:16 PM 56.1 °F - 41.4 °F 58% 29.77 in 10.0 mi East 9.2 mph - N/A   Mostly Cloudy
9:35 PM 56.1 °F - 41.7 °F 58% 29.77 in 10.0 mi East 10.4 mph - N/A   Overcast
9:40 PM 55.8 °F - 41.9 °F 60% 29.76 in 10.0 mi East 10.4 mph - N/A   Overcast
9:56 PM 55.8 °F - 42.4 °F 61% 29.76 in 10.0 mi East 11.5 mph - N/A   Overcast
10:15 PM 55.9 °F - 42.8 °F 61% 29.75 in 10.0 mi ESE 10.4 mph - N/A   Overcast
10:16 PM 55.9 °F - 42.8 °F 61% 29.75 in 10.0 mi East 12.7 mph 17.3 mph N/A   Overcast
10:36 PM 56.3 °F - 43.7 °F 63% 29.75 in 10.0 mi East 13.8 mph - N/A   Overcast
10:55 PM 56.1 °F - 44.2 °F 64% 29.74 in 10.0 mi ESE 13.8 mph 21.9 mph N/A   Overcast
10:56 PM 55.9 °F - 44.2 °F 65% 29.74 in 10.0 mi ESE 12.7 mph 21.9 mph N/A   Overcast
11:15 PM 56.3 °F - 44.2 °F 64% 29.72 in 10.0 mi East 16.1 mph 19.6 mph N/A   Overcast
11:37 PM 56.1 °F - 44.6 °F 65% 29.71 in 10.0 mi East 16.1 mph - N/A   Overcast
11:56 PM 56.3 °F - 44.2 °F 64% 29.70 in 10.0 mi East 18.4 mph 23.0 mph N/A   Overcast